Wind_Speed
27 27 25 24 24 24 22 21 20 19 18 19 19 18 19 19 20 20 20 21 22 24 24 23 23 22 22 23 25 26 26 25 24 24 23 22 21 20 19 17 16 15 14 13 12 11 10 10 10 10 9 8 8 7 6 5 4 4 5 7 9 9 10
28 29 27 26 26 26 25 23 22 21 21 21 22 21 20 20 21 22 22 22 23 25 25 25 24 23 23 24 25 26 26 25 25 24 24 23 22 21 20 18 17 16 16 14 13 12 12 12 12 12 11 10 9 9 8 7 6 6 6 8 9 10 11
31 31 29 29 28 27 27 25 24 23 22 23 24 24 23 22 22 23 24 23 23 25 27 27 26 25 25 25 25 26 26 26 25 25 24 23 23 22 21 19 18 18 17 15 14 14 13 13 13 13 12 12 11 10 9 9 8 7 8 9 11 12 12
34 32 31 30 29 28 28 27 26 24 25 25 26 26 26 24 23 23 25 25 25 26 28 28 27 27 27 27 27 27 27 27 26 25 24 24 23 23 22 21 20 19 18 17 16 16 15 15 15 14 13 13 12 11 10 10 9 9 10 11 12 13 13
35 34 33 32 31 30 29 29 28 27 27 27 27 28 28 27 25 25 26 28 28 27 28 28 28 28 28 28 28 28 27 27 26 26 26 25 25 25 23 23 22 21 20 19 18 18 17 17 16 15 15 14 13 12 11 10 10 10 11 12 13 13 13
36 35 34 33 32 31 31 31 31 30 29 29 29 29 30 29 28 27 27 28 30 29 29 30 30 30 30 29 29 29 29 28 28 27 27 27 27 26 25 24 23 23 22 22 21 20 19 19 18 17 16 14 13 12 12 11 11 11 12 12 13 13 13
37 36 35 35 34 33 34 34 33 32 31 30 30 30 32 32 30 28 27 28 30 31 31 32 33 33 32 32 31 31 31 30 29 29 29 29 29 27 26 26 25 25 24 24 23 22 21 20 19 18 17 15 14 13 12 12 12 12 12 13 13 13 14
39 37 37 37 36 36 36 36 35 34 33 32 32 33 34 34 32 30 29 29 30 32 33 33 34 34 34 33 33 33 33 32 30 30 30 31 30 29 28 28 27 27 26 25 24 23 22 21 20 19 17 16 15 14 14 13 13 14 14 14 14 15 15
41 40 39 39 39 38 38 38 37 36 35 34 35 35 35 34 33 32 30 29 30 33 34 34 34 34 34 34 33 33 33 32 32 32 32 32 31 30 30 30 29 28 27 26 26 25 23 22 21 19 18 17 16 15 15 15 15 15 15 16 16 16 17
43 42 42 41 41 40 40 39 38 37 37 37 37 36 35 35 35 34 32 31 32 33 35 35 34 34 34 34 34 33 33 34 34 33 33 33 32 32 32 31 31 31 29 29 28 26 24 23 22 21 19 18 18 17 17 16 16 17 17 17 17 17 18
45 44 44 42 42 42 41 40 39 38 39 39 39 38 37 37 37 36 35 34 33 33 34 35 35 35 35 35 35 34 35 36 36 36 34 33 32 32 32 32 33 32 31 30 29 27 26 25 24 22 21 20 20 19 18 18 18 18 17 17 18 18 18
49 47 45 43 43 43 42 41 40 40 40 40 39 38 38 38 38 38 37 36 35 34 34 35 36 36 36 36 36 36 37 38 39 38 36 33 33 33 33 33 33 33 32 31 29 28 27 26 25 24 23 22 22 21 20 20 19 18 18 18 18 18 18
52 50 48 45 45 44 43 42 41 40 40 40 39 38 38 39 40 40 39 38 36 35 34 35 36 37 37 37 38 39 39 39 40 39 36 34 34 34 34 33 33 33 33 32 30 30 29 28 27 26 25 25 24 23 22 22 21 19 19 18 19 19 19
54 53 50 47 45 45 44 43 42 41 40 39 39 38 39 40 41 41 40 39 38 37 36 36 37 38 38 38 39 40 40 40 40 39 37 36 35 35 35 35 34 34 34 33 32 32 31 30 29 28 28 27 26 25 24 23 22 21 20 20 20 20 20
55 53 51 48 46 45 45 44 42 41 40 40 39 38 40 41 42 42 42 41 40 40 38 37 37 37 38 39 40 40 40 40 40 39 39 38 37 37 37 36 35 35 35 35 34 33 32 31 31 31 30 29 28 27 26 25 23 23 22 22 22 22 21
55 53 51 48 47 46 45 44 43 42 41 40 39 39 41 42 43 44 44 43 43 43 41 39 38 37 38 39 40 39 39 39 39 39 39 40 40 39 38 37 36 36 36 35 35 35 34 33 33 33 32 31 30 29 28 27 25 25 24 24 24 23 23
56 53 51 49 48 47 46 45 43 42 41 40 40 41 42 43 44 45 45 45 45 44 43 41 39 38 38 39 39 38 38 39 39 39 40 41 42 41 40 39 38 37 36 36 36 36 35 35 35 34 33 33 32 31 30 28 27 27 26 26 26 25 25
56 53 51 49 48 47 46 44 43 42 41 41 41 42 43 44 45 46 47 47 47 45 44 43 41 40 39 37 37 38 39 40 40 40 40 42 43 42 41 41 40 38 38 37 37 37 37 37 37 36 35 35 34 33 32 31 30 29 29 28 28 28 27
55 52 50 48 47 46 45 44 43 42 42 41 42 43 44 45 45 47 48 48 47 46 45 44 43 41 39 37 37 38 39 40 41 41 41 41 42 43 43 43 42 41 40 39 38 38 38 39 39 38 37 37 37 35 34 33 33 32 31 31 31 30 30
54 51 49 47 45 45 44 44 43 43 42 42 43 44 45 46 46 47 47 47 47 47 46 45 44 42 40 38 38 38 38 38 40 41 41 42 41 42 44 45 45 43 42 41 40 40 41 40 39 39 39 39 38 37 37 36 35 34 33 33 33 33 32
53 50 48 46 44 43 43 43 42 42 42 42 42 44 45 45 45 46 46 46 47 47 47 46 45 43 41 40 39 38 37 37 38 39 40 41 42 43 44 46 46 46 45 44 43 42 42 41 40 40 41 40 40 40 39 38 37 36 35 35 35 35 33
53 50 48 46 44 43 43 43 43 43 42 41 42 43 43 44 44 45 45 45 46 47 47 46 46 44 43 42 40 39 38 38 37 37 37 39 41 43 44 45 46 46 46 46 45 44 44 43 43 42 42 41 41 41 41 40 38 38 38 37 36 35 34
53 50 48 46 44 43 43 43 43 43 42 41 41 42 43 43 43 43 44 44 45 46 46 46 47 46 46 45 44 42 41 40 39 38 37 37 39 42 43 43 44 45 46 47 47 46 46 45 44 43 43 43 43 43 42 41 41 40 40 38 37 36 35
53 50 48 46 44 44 43 43 43 43 42 41 41 42 43 42 42 42 43 44 46 46 46 47 47 47 48 47 46 44 43 42 41 40 38 37 38 40 41 42 43 43 45 48 49 49 48 47 45 45 44 45 45 45 44 43 43 42 41 40 39 38 38
54 51 48 46 45 44 44 44 44 43 43 42 41 42 43 43 43 43 44 45 47 49 49 50 49 49 49 49 48 47 45 43 42 41 40 38 38 38 39 41 42 42 44 46 49 50 50 49 48 47 46 46 46 46 45 45 45 44 43 42 42 42 41
55 51 48 46 46 46 45 45 44 44 43 43 42 43 44 44 45 45 45 46 48 50 51 52 51 51 50 50 49 49 47 46 44 42 40 39 37 37 38 40 40 41 43 45 47 48 49 50 50 50 49 48 48 47 47 47 47 47 46 45 44 44 44
56 53 50 48 47 47 47 46 45 44 44 43 43 43 43 44 44 45 45 45 46 48 50 51 51 52 51 51 50 50 48 47 45 43 42 40 38 37 37 39 40 41 42 44 45 46 48 49 50 50 50 50 50 49 49 49 49 49 48 47 45 45 45
57 55 51 49 49 48 48 47 46 45 44 43 43 42 42 43 43 44 44 44 45 46 48 49 50 51 51 51 51 50 49 48 46 45 43 42 40 39 38 38 39 41 42 43 44 45 46 47 48 48 49 49 50 50 51 50 50 49 49 47 45 45 45
58 56 53 51 50 49 49 48 47 45 44 43 43 42 42 42 43 44 44 44 44 45 46 47 49 49 50 50 51 50 49 48 47 46 44 43 42 41 39 39 39 40 42 43 44 44 44 44 45 46 46 47 48 50 50 50 49 49 48 46 45 45 46
59 57 55 52 51 50 49 49 48 46 45 44 43 42 43 43 43 44 44 44 44 45 46 47 47 48 50 51 51 51 51 50 49 48 47 46 45 44 42 41 40 41 42 43 43 44 44 43 44 44 45 46 47 48 49 49 48 47 46 45 45 45 45
60 58 56 54 51 50 50 49 48 46 45 44 43 43 44 44 44 43 43 44 45 46 46 47 48 49 51 52 54 55 55 55 54 52 51 50 48 47 46 45 43 43 43 43 43 43 43 43 44 45 46 46 47 48 48 47 47 46 45 45 45 44 44
61 59 57 55 52 51 50 49 48 46 45 45 44 44 45 44 44 43 42 43 44 45 46 48 49 51 52 53 55 56 57 57 56 55 54 52 51 50 49 48 47 46 45 44 43 43 43 43 43 44 45 45 46 46 46 45 45 46 45 45 44 44 44
61 59 57 55 53 52 51 50 48 47 46 46 46 46 46 45 44 43 42 41 42 44 45 46 48 50 51 52 53 54 55 55 56 55 55 54 53 52 51 51 50 49 47 46 45 43 43 43 42 43 43 43 43 43 43 44 44 45 45 44 43 43 44
60 59 58 56 54 52 51 50 49 48 47 47 47 47 46 45 44 43 42 41 41 42 42 43 45 47 48 49 50 51 52 53 54 54 54 54 53 53 53 52 51 51 50 49 48 47 46 45 44 44 43 43 42 42 42 43 44 44 44 43 43 44 45
60 59 58 56 55 53 52 51 50 50 48 48 48 48 47 46 45 44 43 42 41 41 41 41 42 43 45 46 48 50 51 52 53 53 54 54 54 54 54 54 53 53 53 52 52 51 50 49 48 47 46 45 45 45 45 45 45 45 45 45 46 47 47
62 60 58 57 55 53 53 52 52 51 50 49 49 50 49 47 46 44 43 42 41 40 40 40 40 40 42 43 45 47 49 50 52 53 53 54 54 55 55 55 55 55 55 55 54 54 54 53 52 50 49 49 48 48 48 48 48 48 48 48 49 49 49
64 61 59 58 56 55 54 54 53 52 51 50 50 51 50 49 47 46 44 42 41 40 40 39 39 39 40 41 43 45 47 49 50 52 53 54 55 56 56 56 57 57 57 56 56 56 55 55 55 53 53 52 52 52 51 51 51 51 51 51 52 52 52
65 63 61 59 58 57 56 55 55 54 52 51 51 51 51 50 49 48 46 44 42 41 40 40 40 40 40 41 41 43 45 47 49 50 52 53 54 55 56 57 57 57 57 58 57 57 57 57 57 56 56 56 55 54 54 54 54 53 53 54 54 55 55
Wind_Direction
253 255 255 254 256 258 257 257 256 254 252 251 249 246 242 239 235 227 219 216 216 215 215 215 214 213 211 212 215 215 214 212 212 212 213 213 213 212 212 213 214 218 220 222 223 227 235 244 251 255 255 254 251 248 248 255 272 300 321 330 335 338 342
248 250 251 251 253 255 256 255 255 253 250 249 248 245 241 238 237 233 225 219 217 217 217 217 217 217 215 214 216 218 217 216 215 215 215 215 215 215 215 215 215 218 223 227 228 230 235 242 249 256 257 256 253 252 252 254 263 285 306 317 323 327 330
242 245 247 249 250 253 256 256 255 254 251 248 247 245 241 239 238 237 232 225 221 221 220 217 217 218 219 218 218 219 219 218 217 217 217 217 217 217 217 217 217 219 224 229 232 234 237 240 246 252 257 258 258 257 256 255 261 280 298 310 316 319 321
240 243 246 248 250 252 255 256 255 253 250 246 245 244 241 238 238 238 235 229 225 224 224 221 217 217 220 221 220 221 221 220 220 219 219 219 217 217 217 218 219 221 224 228 232 235 237 239 242 247 252 256 258 261 261 257 261 278 295 306 311 314 315
239 242 245 247 249 250 252 254 253 250 248 246 244 243 241 238 237 237 235 231 226 225 227 226 220 218 222 224 224 224 224 223 222 221 220 219 219 219 219 220 222 222 224 227 230 234 237 238 240 242 246 251 254 258 259 260 267 279 294 303 308 312 314
239 241 244 245 247 249 250 250 251 248 246 245 244 242 242 239 236 238 238 234 229 227 227 227 222 218 220 224 227 228 227 226 224 223 223 222 222 222 222 222 223 223 225 227 229 232 235 237 238 239 240 244 247 251 254 261 271 283 292 299 305 309 313
240 242 243 245 246 248 249 250 250 249 246 244 242 241 241 239 236 236 238 237 233 229 228 228 226 222 219 220 224 228 230 229 228 227 226 226 226 225 225 225 224 224 225 228 230 233 235 236 237 237 236 237 239 244 250 259 270 279 286 291 298 303 307
240 241 242 244 245 246 249 250 250 250 247 243 241 239 239 239 236 235 236 237 234 230 229 230 231 230 225 221 221 225 229 231 231 230 229 230 230 228 227 227 227 227 228 230 232 234 235 236 237 236 234 232 234 240 248 257 266 272 278 285 291 296 300
241 241 242 243 245 247 248 250 251 251 249 245 242 239 238 238 238 236 235 236 235 232 230 230 232 235 233 227 221 223 229 232 233 233 232 233 233 231 230 230 229 230 230 232 234 235 235 236 236 235 233 232 234 239 247 254 261 268 276 284 291 296 300
243 243 244 244 246 248 249 250 251 251 249 246 242 240 237 236 237 236 235 235 235 233 232 232 233 235 236 232 225 222 226 232 235 235 235 235 235 235 234 233 232 232 232 233 235 237 237 236 235 233 231 232 236 241 246 252 260 269 278 287 294 298 301
245 244 245 246 247 248 249 249 249 248 247 245 244 241 238 235 235 236 235 234 234 233 232 233 234 234 235 235 230 224 222 227 233 235 235 237 237 237 237 236 236 236 236 236 238 238 238 237 236 233 232 233 238 243 247 253 260 271 281 289 293 295 297
245 245 244 245 246 247 248 248 247 246 245 244 244 242 239 236 234 235 235 235 235 234 233 233 234 235 234 234 232 228 224 225 230 233 233 234 237 239 239 239 240 240 240 240 240 238 237 237 236 235 233 235 240 244 248 254 262 271 280 286 287 288 293
245 245 244 244 245 247 247 247 246 244 243 243 243 242 239 236 234 234 235 235 235 235 235 233 233 234 235 234 234 232 228 226 229 233 233 233 236 239 240 240 241 241 242 242 240 237 237 237 237 236 235 238 241 245 249 255 263 271 277 280 280 284 290
246 246 246 246 246 247 248 247 246 244 242 242 241 240 239 237 235 234 235 235 235 235 235 235 234 234 235 235 235 234 232 230 231 235 235 233 235 238 241 242 242 242 242 241 239 238 237 237 236 236 237 239 242 245 249 255 262 269 274 276 277 281 287
246 247 248 248 247 247 247 246 246 244 242 241 239 237 238 237 235 234 234 234 233 233 234 235 235 235 235 236 236 235 235 235 236 237 237 235 234 236 239 242 243 243 243 242 242 240 239 238 237 237 239 241 244 246 250 255 261 267 272 274 275 279 283
245 246 247 248 247 246 245 244 243 242 241 240 238 236 236 236 235 234 233 233 232 232 233 234 235 235 235 236 237 237 237 238 239 240 239 237 236 236 237 239 242 243 244 245 245 244 242 240 240 240 241 243 245 248 251 255 260 266 271 273 275 277 279
243 244 245 245 245 245 244 243 243 242 241 240 238 236 235 235 234 233 233 233 233 232 233 234 235 236 236 236 237 239 239 240 241 241 240 239 238 238 238 237 239 242 244 246 246 245 244 243 243 243 244 245 247 249 252 256 261 266 270 273 275 276 277
241 242 243 243 244 244 243 243 242 241 240 240 239 238 236 235 235 234 233 233 233 232 232 233 234 236 237 238 238 239 239 240 241 242 241 241 242 243 241 239 238 239 242 244 245 245 245 245 245 246 246 247 249 251 254 257 261 265 269 273 275 276 277
239 240 240 241 242 243 243 242 240 239 238 237 238 238 236 235 234 234 234 233 233 232 232 232 234 235 237 238 238 239 240 241 241 242 242 242 244 245 245 242 239 238 239 241 243 245 245 245 246 247 248 249 251 253 255 257 260 264 269 273 275 276 276
237 238 239 240 241 242 242 241 240 239 238 237 237 237 236 235 234 234 234 234 233 233 233 232 233 235 237 238 239 240 242 242 243 243 243 243 244 245 245 244 242 240 238 239 241 243 245 246 247 247 248 250 251 253 255 257 260 265 269 272 274 275 276
236 236 237 238 239 241 242 242 241 240 239 237 237 238 238 237 237 236 236 235 234 234 234 233 234 235 237 239 240 240 241 242 243 244 244 245 245 244 244 245 244 243 241 240 240 242 245 247 247 248 249 250 252 254 256 258 261 265 268 271 272 273 275
235 235 236 237 237 238 238 239 239 240 239 237 237 238 238 237 238 237 237 236 235 234 234 233 233 234 235 237 238 238 239 241 242 244 245 246 245 245 245 245 246 246 245 243 242 242 244 246 248 249 251 252 254 255 257 259 262 265 267 269 270 272 274
234 234 234 235 236 236 236 237 238 239 239 237 237 238 238 237 237 237 237 236 235 234 233 233 233 232 234 236 237 237 238 240 242 244 245 246 246 245 245 246 247 247 247 246 244 244 244 245 248 250 252 254 255 256 258 260 262 263 265 266 269 271 273
234 233 233 234 235 236 236 237 238 239 239 238 237 238 239 238 237 236 236 236 235 234 233 232 232 231 232 234 236 237 238 240 242 243 244 246 246 246 246 246 246 247 247 247 246 245 245 245 247 249 251 253 255 256 258 260 261 262 263 265 268 270 272
234 234 233 234 236 237 237 238 238 239 240 239 238 237 238 238 237 236 234 234 233 233 232 232 231 230 231 232 234 236 237 239 241 242 243 245 247 246 245 246 246 247 248 248 247 247 247 247 247 248 249 251 254 256 257 258 260 261 262 265 268 270 271
235 235 233 234 237 239 239 239 239 239 240 240 239 238 238 238 238 238 236 234 234 234 234 233 232 231 231 232 234 235 237 239 240 241 242 244 246 245 244 244 245 246 247 248 249 248 248 248 248 248 249 251 253 254 256 257 259 261 263 265 267 269 271
235 235 234 235 238 240 241 241 241 241 241 241 241 241 240 240 240 241 241 239 237 237 237 237 236 235 234 234 234 236 237 239 241 242 242 243 244 244 242 242 243 244 246 247 248 248 249 249 249 250 250 251 253 254 256 257 259 261 263 264 265 267 269
234 234 234 235 237 240 242 242 242 243 243 243 244 243 242 242 242 242 243 242 240 239 238 238 238 237 236 235 235 236 238 239 241 243 243 243 244 244 243 243 243 244 245 245 246 246 247 248 249 251 251 253 254 255 256 258 259 260 262 262 263 265 268
233 234 233 234 236 239 242 243 243 243 244 244 244 244 243 243 242 242 242 241 240 239 238 238 238 238 238 237 236 236 237 239 240 241 242 242 242 243 243 243 243 244 244 244 245 245 246 247 248 250 251 252 254 255 257 258 259 259 260 260 262 264 266
233 234 233 234 235 238 241 243 244 244 244 244 244 243 243 243 243 242 241 240 239 237 236 236 236 237 237 237 236 235 235 236 237 237 238 239 240 241 241 242 243 244 244 244 244 245 245 246 247 249 250 251 253 254 256 257 257 258 258 259 260 263 265
233 234 234 234 236 238 241 243 244 244 244 243 242 242 242 242 242 241 239 238 237 235 234 233 233 233 234 234 234 234 234 235 235 236 237 238 239 240 241 242 243 244 245 245 245 245 246 246 247 248 249 250 252 253 254 255 256 257 257 258 260 262 265
233 234 235 235 236 238 239 241 242 242 242 242 241 241 241 240 239 238 237 235 235 234 234 233 232 232 232 232 233 234 235 235 236 237 237 238 239 240 241 242 243 244 245 245 245 246 247 247 248 249 250 251 252 254 255 256 257 257 258 258 260 262 264
233 234 235 236 236 237 239 239 240 240 240 240 240 240 239 239 238 237 236 235 234 234 233 233 233 233 233 233 234 235 236 236 237 237 238 239 240 240 242 243 243 244 245 246 247 248 248 249 250 250 251 252 253 255 256 256 257 257 258 259 260 261 262
235 235 235 236 237 237 238 239 239 238 237 237 238 238 238 238 238 237 237 236 234 234 234 233 233 234 234 234 234 235 236 237 237 238 239 239 240 241 242 244 245 246 246 246 247 248 249 250 250 250 251 252 253 254 255 256 257 258 259 260 261 261 262
235 236 236 236 237 237 237 238 238 237 236 235 236 237 237 237 237 237 237 236 235 235 234 234 233 234 234 234 235 235 236 236 237 238 239 239 240 241 242 244 245 246 247 247 247 248 249 250 251 251 252 253 253 254 255 256 258 260 261 261 262 262 263
235 236 236 236 236 236 236 237 237 237 236 235 236 237 237 237 237 236 236 236 236 236 236 236 236 236 236 236 236 236 236 237 237 238 238 239 240 241 242 243 244 246 247 248 248 249 250 251 252 253 254 255 255 256 257 258 259 260 262 262 263 264 265
233 235 236 236 235 235 235 236 237 237 236 235 235 235 236 236 236 236 236 236 236 237 237 238 238 238 238 238 238 238 238 238 238 238 239 239 240 241 241 242 244 245 246 248 249 250 251 252 254 255 256 257 257 258 259 259 260 261 262 263 264 265 266
231 233 234 235 235 234 235 236 237 237 237 236 234 234 236 236 236 236 235 234 235 235 237 238 239 239 239 239 239 239 239 239 240 240 240 240 240 241 241 242 243 245 246 247 248 250 251 253 255 256 257 258 258 259 260 261 261 262 263 264 265 265 266
Height
10947 10949 10951 10953 10955 10956 10959 10960 10961 10963 10964 10965 10967 10968 10970 10971 10971 10972 10973 10975 10976 10977 10978 10979 10980 10982 10984 10986 10987 10989 10990 10992 10994 10995 10996 10997 10998 10999 11000 11001 11003 11004 11005 11006 11007 11007 11008 11009 11010 11010 11011 11012 11012 11012 11012 11013 11013 11014 11014 11014 11014 11014 11014
10943 10945 10948 10950 10952 10954 10956 10958 10959 10960 10962 10963 10964 10966 10968 10969 10970 10971 10972 10973 10974 10975 10976 10977 10979 10981 10983 10985 10986 10987 10989 10991 10992 10994 10995 10996 10997 10998 10999 11000 11002 11003 11004 11005 11006 11007 11007 11008 11009 11010 11011 11011 11012 11012 11012 11013 11013 11013 11014 11014 11014 11014 11013
10939 10941 10944 10946 10949 10951 10953 10955 10956 10958 10959 10961 10962 10963 10965 10967 10968 10970 10970 10972 10973 10974 10975 10976 10978 10980 10981 10983 10984 10985 10987 10989 10990 10992 10994 10995 10996 10997 10998 10999 11000 11001 11003 11004 11005 11006 11007 11007 11008 11009 11010 11010 11011 11012 11012 11013 11013 11013 11013 11013 11013 11013 11013
10936 10938 10940 10943 10945 10948 10950 10951 10953 10955 10956 10958 10959 10961 10963 10964 10966 10968 10969 10970 10972 10972 10973 10974 10976 10978 10979 10981 10982 10984 10985 10987 10989 10991 10992 10994 10995 10996 10997 10998 10999 11000 11001 11002 11003 11005 11005 11006 11007 11008 11009 11010 11010 11011 11012 11012 11013 11013 11013 11013 11013 11013 11012
10932 10935 10937 10939 10941 10944 10946 10948 10950 10952 10953 10954 10956 10958 10960 10962 10963 10965 10966 10968 10969 10970 10972 10973 10975 10976 10977 10979 10981 10982 10984 10985 10987 10989 10990 10992 10992 10994 10995 10996 10997 10998 10999 11000 11001 11003 11004 11004 11005 11006 11007 11008 11009 11010 11011 11011 11012 11012 11013 11012 11012 11012 11012
10929 10931 10933 10935 10937 10940 10942 10944 10946 10948 10950 10951 10953 10955 10957 10959 10960 10962 10964 10965 10966 10968 10970 10971 10973 10974 10975 10977 10978 10980 10982 10984 10985 10987 10988 10989 10990 10992 10993 10995 10996 10997 10997 10998 10999 11001 11002 11003 11003 11004 11006 11007 11008 11009 11010 11010 11011 11011 11012 11012 11012 11011 11011
10925 10927 10928 10930 10933 10935 10937 10939 10942 10944 10946 10948 10950 10952 10953 10955 10957 10959 10961 10962 10964 10966 10967 10968 10970 10971 10972 10974 10976 10978 10979 10981 10983 10985 10986 10987 10988 10990 10991 10992 10994 10994 10995 10996 10997 10999 11000 11001 11002 11003 11004 11005 11006 11008 11008 11009 11010 11010 11010 11011 11011 11011 11010
10921 10922 10924 10926 10928 10930 10932 10935 10938 10940 10943 10945 10946 10948 10949 10951 10954 10956 10958 10959 10961 10963 10964 10966 10967 10968 10970 10971 10973 10975 10976 10979 10981 10983 10984 10985 10987 10988 10989 10990 10991 10992 10993 10995 10996 10997 10998 10999 11000 11002 11003 11004 11005 11006 11007 11008 11008 11009 11009 11009 11010 11010 11010
10916 10918 10920 10922 10924 10926 10928 10931 10933 10936 10939 10941 10942 10944 10946 10948 10950 10952 10954 10957 10958 10959 10961 10963 10964 10966 10969 10970 10971 10973 10974 10976 10978 10980 10982 10983 10985 10986 10987 10988 10989 10990 10991 10993 10994 10995 10996 10997 10999 11000 11002 11003 11004 11005 11005 11006 11007 11007 11007 11008 11008 11008 11008
10911 10914 10916 10918 10921 10923 10925 10927 10930 10933 10934 10936 10938 10940 10943 10944 10946 10948 10950 10953 10954 10956 10958 10960 10962 10964 10966 10968 10969 10971 10972 10973 10975 10977 10979 10981 10983 10984 10985 10986 10987 10988 10989 10990 10991 10993 10994 10996 10997 10998 11000 11001 11002 11003 11004 11005 11005 11005 11006 11006 11006 11006 11007
10905 10909 10912 10915 10917 10919 10921 10924 10927 10928 10929 10931 10933 10936 10939 10941 10942 10944 10946 10948 10950 10952 10955 10957 10958 10960 10962 10964 10967 10968 10969 10970 10971 10973 10975 10978 10980 10981 10983 10984 10985 10986 10987 10988 10989 10991 10992 10993 10995 10997 10998 10999 11000 11001 11002 11003 11003 11004 11004 11004 11004 11004 11005
10899 10903 10907 10910 10912 10915 10918 10920 10923 10924 10925 10926 10929 10932 10934 10936 10938 10940 10942 10943 10946 10948 10951 10953 10955 10956 10958 10961 10963 10965 10966 10966 10967 10969 10972 10975 10977 10978 10980 10981 10983 10984 10986 10987 10988 10989 10990 10991 10993 10994 10996 10997 10998 10999 11000 11001 11001 11002 11002 11002 11002 11002 11003
10892 10897 10902 10906 10908 10911 10913 10916 10918 10920 10920 10922 10925 10927 10930 10931 10933 10936 10938 10940 10942 10945 10947 10949 10951 10953 10954 10957 10959 10961 10962 10963 10964 10965 10969 10972 10974 10975 10977 10978 10980 10982 10983 10985 10986 10987 10988 10989 10991 10992 10994 10995 10996 10997 10997 10998 10999 11000 11000 11000 11000 11000 11001
10886 10891 10897 10903 10906 10908 10909 10911 10913 10915 10916 10918 10920 10923 10925 10927 10929 10931 10934 10936 10939 10941 10943 10944 10946 10948 10951 10953 10954 10956 10959 10960 10961 10963 10966 10968 10971 10972 10973 10975 10977 10979 10980 10982 10983 10984 10986 10987 10989 10990 10991 10992 10993 10994 10995 10996 10997 10997 10998 10998 10999 10999 10999
10882 10887 10893 10899 10902 10904 10905 10906 10908 10910 10912 10913 10915 10918 10920 10922 10924 10927 10929 10932 10934 10936 10938 10940 10942 10944 10947 10949 10950 10952 10955 10958 10959 10961 10963 10965 10967 10968 10970 10972 10974 10976 10977 10979 10980 10982 10984 10985 10986 10987 10988 10989 10991 10992 10993 10994 10995 10995 10996 10996 10996 10996 10996
10878 10884 10889 10894 10897 10899 10900 10901 10903 10905 10906 10908 10911 10913 10915 10917 10919 10921 10924 10927 10929 10932 10934 10936 10938 10941 10942 10944 10946 10949 10952 10955 10957 10958 10960 10961 10962 10964 10966 10969 10971 10973 10974 10976 10978 10979 10981 10982 10983 10984 10985 10987 10988 10988 10990 10991 10992 10993 10993 10993 10994 10994 10994
10874 10880 10885 10889 10892 10894 10896 10897 10899 10901 10902 10904 10906 10908 10910 10911 10914 10916 10919 10922 10924 10928 10931 10933 10935 10937 10938 10941 10943 10946 10949 10951 10953 10955 10956 10957 10958 10960 10963 10965 10968 10970 10971 10973 10975 10976 10978 10979 10980 10981 10983 10984 10984 10985 10986 10988 10989 10990 10990 10990 10990 10990 10990
10869 10875 10880 10884 10887 10890 10892 10894 10895 10897 10898 10900 10901 10902 10904 10907 10909 10912 10914 10916 10920 10923 10926 10929 10931 10933 10935 10938 10941 10943 10944 10946 10949 10951 10952 10954 10955 10957 10959 10961 10964 10966 10967 10969 10971 10973 10974 10975 10977 10979 10980 10981 10981 10982 10983 10984 10985 10986 10986 10987 10987 10987 10987
10864 10870 10874 10879 10882 10885 10887 10889 10890 10892 10894 10895 10896 10897 10899 10901 10904 10906 10908 10912 10916 10919 10922 10924 10927 10929 10932 10935 10937 10938 10940 10942 10944 10946 10948 10950 10952 10953 10955 10957 10959 10961 10963 10965 10967 10969 10970 10971 10973 10975 10976 10977 10977 10979 10980 10980 10981 10982 10982 10983 10983 10983 10983
10859 10865 10869 10873 10877 10879 10881 10883 10885 10887 10889 10890 10892 10892 10894 10897 10899 10901 10905 10909 10912 10915 10918 10920 10923 10926 10929 10931 10933 10934 10937 10939 10940 10942 10944 10946 10948 10950 10951 10952 10954 10956 10958 10960 10963 10964 10965 10967 10970 10971 10972 10973 10974 10975 10975 10976 10977 10978 10978 10979 10978 10978 10979
10855 10860 10864 10869 10872 10874 10876 10878 10880 10882 10884 10886 10887 10889 10891 10894 10896 10899 10902 10905 10908 10911 10913 10917 10920 10923 10926 10927 10929 10931 10933 10935 10936 10938 10940 10942 10943 10945 10945 10947 10949 10951 10953 10956 10957 10959 10961 10963 10965 10966 10967 10969 10970 10971 10971 10972 10973 10973 10974 10974 10974 10974 10975
10850 10856 10860 10864 10867 10869 10870 10872 10874 10876 10878 10881 10883 10884 10887 10890 10892 10895 10898 10901 10904 10906 10909 10912 10915 10919 10921 10922 10925 10927 10929 10930 10932 10934 10936 10937 10938 10939 10940 10942 10944 10946 10949 10951 10952 10954 10956 10957 10959 10961 10963 10964 10965 10966 10967 10968 10969 10969 10969 10970 10969 10970 10970
10845 10851 10855 10859 10861 10863 10865 10867 10869 10870 10873 10876 10878 10880 10882 10885 10888 10891 10894 10897 10899 10901 10904 10907 10910 10914 10916 10918 10920 10922 10924 10926 10928 10930 10932 10933 10933 10934 10936 10938 10940 10942 10944 10946 10947 10948 10950 10952 10954 10956 10958 10959 10960 10961 10962 10963 10964 10964 10965 10965 10965 10966 10966
10839 10845 10850 10854 10856 10858 10860 10862 10864 10866 10868 10871 10874 10875 10877 10879 10883 10886 10888 10891 10893 10896 10898 10901 10904 10908 10911 10913 10916 10918 10920 10922 10924 10926 10927 10928 10929 10930 10932 10934 10936 10938 10939 10941 10942 10943 10945 10947 10949 10951 10952 10953 10954 10955 10957 10959 10959 10960 10960 10961 10961 10961 10961
10833 10839 10845 10849 10851 10853 10855 10857 10859 10861 10863 10866 10869 10870 10872 10875 10877 10880 10882 10884 10887 10889 10892 10894 10898 10902 10905 10908 10911 10913 10915 10918 10919 10921 10923 10924 10925 10926 10927 10929 10931 10933 10934 10935 10937 10938 10940 10942 10943 10945 10946 10947 10949 10951 10952 10953 10954 10955 10955 10956 10956 10955 10956
10827 10833 10840 10843 10845 10847 10850 10852 10854 10857 10859 10861 10863 10865 10867 10870 10872 10874 10876 10879 10882 10884 10886 10889 10893 10896 10900 10903 10906 10908 10910 10913 10915 10917 10918 10920 10921 10922 10923 10924 10925 10927 10928 10929 10931 10933 10935 10936 10937 10939 10940 10942 10943 10945 10946 10948 10949 10949 10950 10951 10951 10950 10950
10821 10828 10833 10838 10840 10842 10844 10846 10849 10852 10854 10856 10858 10861 10863 10865 10867 10869 10872 10875 10878 10880 10882 10885 10888 10891 10895 10898 10900 10903 10906 10908 10910 10913 10914 10915 10917 10917 10918 10919 10920 10921 10922 10924 10926 10927 10929 10930 10931 10933 10935 10936 10938 10939 10940 10942 10944 10944 10945 10946 10946 10945 10944
10815 10821 10827 10832 10834 10836 10838 10841 10844 10847 10849 10851 10853 10856 10859 10861 10863 10865 10867 10870 10873 10875 10878 10880 10883 10886 10889 10892 10895 10898 10901 10904 10906 10908 10910 10911 10912 10912 10913 10914 10915 10916 10917 10918 10920 10921 10923 10924 10926 10927 10929 10931 10932 10933 10934 10936 10938 10939 10940 10940 10940 10940 10939
10809 10815 10821 10826 10829 10831 10833 10835 10838 10841 10844 10846 10849 10852 10854 10856 10857 10859 10862 10865 10867 10869 10872 10875 10878 10881 10884 10886 10890 10893 10896 10898 10901 10903 10904 10905 10906 10907 10908 10909 10910 10911 10912 10913 10914 10915 10917 10919 10920 10922 10923 10925 10926 10926 10928 10930 10932 10934 10935 10935 10935 10934 10933
10804 10809 10815 10820 10824 10827 10828 10830 10833 10837 10839 10842 10844 10847 10849 10851 10852 10854 10857 10859 10861 10863 10866 10869 10872 10875 10878 10880 10883 10886 10889 10891 10893 10895 10897 10898 10900 10901 10902 10903 10905 10905 10906 10907 10909 10910 10911 10913 10915 10916 10917 10918 10920 10920 10922 10924 10926 10928 10929 10929 10929 10929 10928
10797 10802 10808 10814 10818 10822 10824 10826 10829 10832 10834 10837 10839 10842 10844 10845 10847 10849 10851 10853 10855 10857 10859 10863 10865 10868 10870 10873 10876 10878 10881 10883 10886 10888 10890 10892 10894 10896 10897 10898 10899 10900 10901 10902 10903 10904 10906 10907 10909 10910 10911 10912 10914 10915 10917 10919 10920 10921 10922 10923 10924 10923 10923
10791 10796 10801 10807 10812 10816 10819 10822 10824 10827 10829 10831 10834 10836 10838 10840 10842 10844 10846 10848 10849 10851 10854 10856 10859 10861 10863 10866 10869 10871 10874 10877 10880 10882 10884 10887 10889 10890 10891 10893 10894 10895 10896 10897 10898 10899 10901 10902 10904 10905 10906 10907 10909 10910 10912 10914 10914 10915 10915 10917 10918 10918 10918
10785 10790 10795 10801 10806 10811 10814 10818 10820 10822 10824 10826 10828 10830 10832 10834 10837 10839 10841 10843 10845 10846 10849 10851 10853 10855 10858 10861 10863 10866 10868 10871 10874 10876 10878 10881 10883 10885 10886 10887 10888 10890 10891 10892 10893 10894 10896 10897 10899 10900 10901 10903 10904 10906 10907 10907 10907 10908 10909 10911 10912 10912 10912
10779 10785 10790 10795 10801 10806 10810 10813 10816 10818 10820 10822 10823 10825 10827 10830 10832 10834 10836 10838 10840 10842 10844 10846 10848 10850 10853 10856 10858 10860 10862 10865 10867 10870 10872 10875 10877 10879 10880 10882 10883 10884 10885 10887 10888 10889 10891 10892 10893 10895 10896 10898 10899 10901 10901 10901 10901 10902 10903 10905 10905 10905 10906
10773 10779 10785 10790 10796 10800 10804 10807 10810 10812 10815 10817 10819 10821 10823 10825 10827 10829 10832 10834 10836 10838 10839 10841 10843 10846 10848 10850 10852 10854 10857 10859 10861 10863 10866 10869 10871 10873 10875 10876 10877 10878 10880 10881 10882 10883 10885 10886 10888 10889 10891 10893 10894 10895 10895 10895 10896 10897 10897 10898 10898 10899 10899
10769 10774 10780 10785 10790 10795 10798 10801 10804 10807 10810 10813 10815 10817 10819 10821 10822 10824 10826 10829 10831 10833 10835 10837 10839 10841 10843 10845 10847 10849 10851 10853 10855 10857 10860 10862 10864 10866 10868 10870 10871 10872 10874 10875 10876 10878 10879 10880 10882 10884 10886 10887 10888 10889 10889 10890 10891 10891 10891 10891 10891 10892 10892
10765 10769 10774 10779 10784 10788 10792 10795 10798 10802 10805 10808 10811 10813 10814 10816 10817 10819 10822 10824 10826 10828 10830 10832 10835 10837 10838 10840 10841 10843 10845 10847 10849 10851 10853 10855 10858 10860 10861 10863 10865 10866 10868 10869 10871 10872 10874 10875 10876 10878 10880 10881 10881 10882 10883 10884 10884 10885 10885 10885 10885 10885 10886
10760 10764 10768 10772 10777 10781 10785 10788 10792 10795 10799 10802 10805 10808 10809 10811 10813 10814 10817 10819 10821 10823 10825 10827 10830 10832 10833 10835 10836 10838 10839 10841 10843 10845 10847 10849 10851 10853 10855 10857 10858 10860 10862 10863 10865 10867 10868 10869 10870 10871 10873 10874 10875 10876 10877 10877 10878 10878 10878 10879 10879 10879 10879